Location: Huberhof
(49.2050°N, 7.4980°E)
Time: 05:36:09
(UTC+00:00)

Cosmos 1354 Rocket - Pass Details

Date: 29 October 2020
Orbit: 764 x 783 km, 74.0° (Epoch: 25 November)

Event Time Altitude Azimuth Distance (km) Brightness Sun altitude
Rises 17:27:23 0° 339° (NNW) 3,248 7.4 -12.6°
Reaches altitude 10° 17:29:51 10° 345° (NNW) 2,320 6.6 -13.0°
Maximum altitude 17:34:58 50° 61° (ENE) 977 4.2 -13.8°
Drops below altitude 10° 17:40:05 10° 137° (SE) 2,317 6.1 -14.7°
Enters shadow 17:41:02 - 139° (SE) 2,671 6.5 -14.8°
